Location: Unspecified
(47.6579°N, 23.5637°E)
Time: 10:10:25
(UTC+02:00)

Envisat - Pass Details

Date: 01 December 2021
Orbit: 764 x 766 km, 98.2° (Epoch: 26 January)

Event Time Altitude Azimuth Distance (km) Brightness Sun altitude
Rises 06:02:04 0° 10° (N) 3,246 6.2 -18.0°
Reaches altitude 10° 06:04:25 10° 6° (N) 2,315 5.4 -17.6°
Maximum altitude 06:09:23 56° 290° (WNW) 914 3.0 -16.8°
Drops below altitude 10° 06:14:19 10° 213° (SSW) 2,298 5.3 -16.0°
Sets 06:16:39 0° 209° (SSW) 3,219 6.1 -15.6°
